Regional Weather Roundup
Issued by NWS

Home | Current Version | Previous Version | Graphics & Text | Print | Product List | Glossary On
Versions: 1 2 3 4 5 6 7 8 9 10 11 12 13 14 15 16 17 18 19 20 21 22 23 24 25 26 27 28 29 30 31 32 33 34 35 36 37 38 39 40 41 42 43 44 45 46 47 48 49 50
248
ASUS44 KLIX 181210
RWRLA
LOUISIANA WEATHER ROUNDUP
NATIONAL WEATHER SERVICE NEW ORLEANS LA
700 AM CDT FRI APR 18 2014

NOTE: "FAIR" INDICATES FEW OR NO CLOUDS BELOW 12,000 FEET WITH NO
      SIGNIFICANT WEATHER AND/OR OBSTRUCTIONS TO VISIBILITY.
      SKY/WX - SKY CONDITION AND SIGNIFICANT WEATHER.
      TMP - AIR TEMPERATURE.    DP   - DEWPOINT TEMPERATURE.
      RH  - RELATIVE HUMIDITY.  PRES - PRESSURE.
      HX  - HEAT INDEX.         WCI  - WIND CHILL INDEX.

*  THESE STATIONS ARE NOT NWS OR FAA STATIONS AND ARE NOT UNDER
   NWS QUALITY CONTROL.

LAZ040-048-061>063-065-066-069-181300-
SOUTHEAST LOUISIANA

CITY           SKY/WX    TMP DP  RH WIND       PRES   REMARKS
N.O. AUDUBON     N/A     63 N/A N/A MISG        N/A
6HR MIN TEMP:  61; 6HR MAX TEMP:  66; 6HR PCP:  0.02;

N.O. INTL ARPT DRIZZLE   61  60  97 N9        30.09R FOG
6HR MIN TEMP:  61; 6HR MAX TEMP:  64; 6HR PCP: TRACE;

N.O. LAKEFRONT CLOUDY    62  60  93 N15       30.10R
6HR MIN TEMP:  62; 6HR MAX TEMP:  63; 6HR PCP:  0.02;

N.O. DOWNTOWN* CLOUDY    63  55  77 N7        30.09R
6HR MIN TEMP:  61; 6HR MAX TEMP:  63;

SLIDELL        CLOUDY    61  59  93 N7        30.08R
6HR MIN TEMP:  61; 6HR MAX TEMP:  62; 6HR PCP:  0.04;

BATON ROUGE    CLOUDY    61  55  81 CALM      30.12R
6HR MIN TEMP:  60; 6HR MAX TEMP:  63;

BOOTHVILLE     CLOUDY    63  60  90 N8        30.04R
6HR MIN TEMP:  63; 6HR MAX TEMP:  63;

BELLE CHASSE   LGT RAIN  62  58  86 N6        30.08R FOG
6HR MIN TEMP:  62; 6HR MAX TEMP:  63;

BOGALUSA*        N/A     62  58  88 N3        30.11S
6HR MIN TEMP:  61; 6HR MAX TEMP:  64;

GALLIANO*      LGT RAIN  63  61  92 NW10      30.07R
6HR MIN TEMP:  63; 6HR MAX TEMP:  64;

NEW ROADS*     FAIR      57  55  92 N5        30.14R
6HR MIN TEMP:  56; 6HR MAX TEMP:  61;

GONZALES*      CLOUDY    61  57  88 N5        30.11R
6HR MIN TEMP:  61; 6HR MAX TEMP:  63;

HAMMOND*       CLOUDY    61  55  82 CALM      30.12R
HOUMA*         CLOUDY    63  59  88 N12       30.10R
PORT FOURCHON* CLOUDY    63  61  94 N12       30.07R FOG

$$

LAZ041-044-053-054-181300-
SOUTHWEST LOUISIANA

CITY           SKY/WX    TMP DP  RH WIND       PRES   REMARKS
LAKE CHARLES   CLOUDY    56  54  93 N5        30.14R
6HR MIN TEMP:  53; 6HR MAX TEMP:  57;

LAFAYETTE      CLOUDY    60  57  89 N3        30.13R
6HR MIN TEMP:  60; 6HR MAX TEMP:  61;

PATTERSON      CLOUDY    61  57  88 N7          N/A
6HR MIN TEMP:  61; 6HR MAX TEMP:  63;

SALT POINT       N/A     64  60  87 N6        30.10R
6HR MIN TEMP:  64; 6HR MAX TEMP:  65;

NEW IBERIA     CLOUDY    61  58  90 N5        30.13R
6HR MIN TEMP:  61; 6HR MAX TEMP:  63;

CHENAULT AIRPK MOCLDY    55  54  94 N8        30.15R

$$

LAZ027-028-181300-
CENTRAL LOUISIANA

CITY           SKY/WX    TMP DP  RH WIND       PRES   REMARKS
FORT POLK      MOCLDY    55  53  93 NE6       30.15R
6HR MIN TEMP:  51; 6HR MAX TEMP:  55;

ALEXANDRIA INT CLOUDY    56  54  93 N3        30.15R
6HR MIN TEMP:  51; 6HR MAX TEMP:  56;

ALEXANDRIA     CLOUDY    56  53  90 N3        30.16R
6HR MIN TEMP:  50; 6HR MAX TEMP:  57;


$$

LAZ001-002-181300-
NORTHWEST LOUISIANA

CITY           SKY/WX    TMP DP  RH WIND       PRES   REMARKS
SHREVEPORT     CLOUDY    56  52  86 CALM      30.19R
6HR MIN TEMP:  51; 6HR MAX TEMP:  57; 6HR PCP:  0.07;

BARKSDALE AFB  CLOUDY    54  52  93 N3        30.20R
6HR MIN TEMP:  51; 6HR MAX TEMP:  55; 6HR PCP:  0.03;

DTN SHREVEPORT CLOUDY    55  51  86 N5        30.20R
6HR MIN TEMP:  50; 6HR MAX TEMP:  55; 6HR PCP:  0.01;


$$

LAZ014-016-181300-
NORTHEAST LOUISIANA

CITY           SKY/WX    TMP DP  RH WIND       PRES   REMARKS
MONROE         CLOUDY    56  53  90 NE3       30.20R
6HR MIN TEMP:  53; 6HR MAX TEMP:  57;

TALLULAH       CLOUDY    59  55  87 N6        30.18R
6HR MIN TEMP:  58; 6HR MAX TEMP:  61;


$$




USA.gov is the U.S. government's official web portal to all federal, state and local government web resources and services.